Zurück zum Katalog

COSMOS 1275 DEB

AktivPO
NORAD 14405·DEBRIS·🇷🇺 Russia

Gestartet Jun 4, 1981 von Plesetsk Cosmodrome

Loading…

Nächste Überflüge (nächste 24 Stunden)

TLE

AktuellSource: Space-Track

Epoche: Sep 14, 2026, 15:46 UTC

1 14405U 81053JA  26257.65705942  .00000528  00000-0  45730-3 0  9998
2 14405  83.2655  43.3378 0068053  51.6541 321.9165 13.83410862257521

Verfolge COSMOS 1275 DEB in Echtzeit mit AllMySat

Download on the App Store